Miscellaneous Local Product
Issued by NWS North Platte, NE

Home | Current Version | Previous Version | Graphics & Text | Print | Product List | Glossary On
Versions: 1 2 3 4 5 6 7 8 9 10 11 12 13 14 15 16 17 18 19 20 21 22 23 24 25 26 27 28 29 30 31 32 33 34 35 36 37 38 39 40 41 42 43 44 45 46 47 48 49 50
000
AXUS43 KLBF 280010
MISLBF


WESTERN AND NORTH CENTRAL NEBRASKA HOURLY WEATHER ROUNDUP
NATIONAL WEATHER SERVICE NORTH PLATTE NE
600 PM CST TUE JAN 27 2015

***STATIONS NOT REPORTING VARIABLES SUCH AS SKY/WEATHER OR
PRESSURE ARE PROVIDED BY THE NEBRASKA DEPARTMENT OF
ROADS...RAWS...AND APRS NETWORKS...AND ARE NOT UNDER
NATIONAL WEATHER SERVICE QUALITY CONTROL***

...OBSERVATIONS IN AND NEAR THE EASTERN PANHANDLE OF NEBRASKA...

CITY           SKY/WX    TMP DP  RH WIND       PRES   REMARKS
PINE RIDGE     CLEAR     50  31  48 VRB3      29.91F
CHADRON        PTCLDY    54  34  46 E6        29.91F
ALLIANCE       PTCLDY    54  28  36 S6        29.94F
SIDNEY         MOCLDY    53  33  46 S5        29.98F
WHITECLAY        N/A     47  29  50 E7          N/A
LISCO            N/A     57  24  28 NE5         N/A
LEWELLEN         N/A     63  16  16 W3          N/A
$$

...OBSERVATIONS IN NORTH CENTRAL NEBRASKA...

CITY           SKY/WX    TMP DP  RH WIND       PRES   REMARKS
VALENTINE      CLEAR     57  33  40 SW7       29.88S
THEDFORD       CLEAR     59  32  36 S6        29.91F
AINSWORTH      CLEAR     56  32  41 CALM      29.89F
O`NEILL        CLEAR     50  37  60 SE7       29.92S
ORD            CLEAR     53  33  46 E3        29.91F
BROKEN BOW     CLEAR     59  34  39 SE7       29.91S
BROWNLEE         N/A     66  26  22 S5          N/A
VALENTINE NWR    N/A     68  29  23 S5          N/A
SPRINGVIEW       N/A     58  36  43 CALM        N/A
HALSEY           N/A     73  28  19 CALM        N/A
BREWSTER         N/A     56  34  44 S7          N/A
ROSE             N/A     58  40  50 E6          N/A
NEWPORT          N/A     56  37  48 S9          N/A
SARGENT          N/A     53  37  54 CALM        N/A
COMSTOCK         N/A     53  34  48 S9          N/A
CHAMBERS         N/A     46  29  51 S3          N/A
EWING            N/A     46  37  70 CALM        N/A
$$

...OBSERVATIONS IN SOUTHWEST NEBRASKA AND FAR NORTHEAST COLORADO...

CITY           SKY/WX    TMP DP  RH WIND       PRES   REMARKS
WRAY           FAIR      71  24  17 SE5       29.96F
HOLYOKE        FAIR      59  28  31 CALM      29.97S
IMPERIAL       PTCLDY    60  26  27 NE3       29.95F
OGALLALA       PTCLDY    56  31  39 N5        29.94F
NORTH PLATTE   CLEAR     55  28  35 CALM      29.92F
MCCOOK         CLEAR     69  29  22 CALM      29.93F
LEXINGTON      CLEAR     60  32  34 E3        29.92S
BRADY            N/A     60  31  33 CALM        N/A
GOTHENBURG       N/A     63  29  27 CALM        N/A
CALLAWAY         N/A     56  33  42 S3          N/A
$$

...NORTH PLATTE AREA...

CITY           SKY/WX    TMP DP  RH WIND       PRES   REMARKS
AIRPORT        CLEAR     55  28  35 CALM      29.92F
DOWNTOWN         N/A     65  30  27 CALM        N/A
$$

...SOME WEATHER OBSERVATIONS FROM AROUND THE REGION...

CITY           SKY/WX    TMP DP  RH WIND       PRES   REMARKS
DENVER         PTCLDY    58  34  40 E9        30.01F
LARAMIE        PTCLDY    51  18  27 SW12      30.13F
CHEYENNE       MOCLDY    57  19  22 W8        30.06S
SCOTTSBLUFF      N/A    N/A N/A N/A MISG      29.95F
RAPID CITY     CLEAR     58  30  34 E3        29.85F
PIERRE         CLEAR     46  35  65 E8        29.84S
WINNER         FAIR      53  36  52 SE8       29.86F
SIOUX FALLS    PTCLDY    39  34  82 SE9       30.00S WCI  33
OMAHA          PTCLDY    47  31  53 SE10      30.04S
GRAND ISLAND   CLEAR     53  34  48 SE9       29.95S
KANSAS CITY    CLEAR     50  30  46 E9        30.07F
WICHITA        PTCLDY    65  37  35 S13       29.99F
HAYS           CLEAR     70  25  18 SW14      29.95R
LIBERAL        PTCLDY    68  30  24 SW14      30.05S
GOODLAND       MOCLDY    60  27  28 S6        29.98F
$$



USA.gov is the U.S. government's official web portal to all federal, state and local government web resources and services.